| time (UTC) | temp F | wind direction | speed knots | gust knots | rain 1hr in | rain 24hr in | rain mn in | humidity % | barometer mb |
| 20260504110426 | 44 | 124 | 0.0 | 1.7 | 0.00 | 0.00 | 0.00 | 78 | 1015.1 |
| 20260504100343 | 38 | 307 | 0.0 | 0.0 | 0.00 | 0.00 | 0.00 | 81 | 1014.8 |
| 20260504081737 | 41 | 261 | 1.7 | 1.7 | 0.00 | 0.00 | 0.00 | 72 | 1015.0 |
| 20260504081233 | 41 | 305 | 0.0 | 1.7 | 0.00 | 0.00 | 0.00 | 72 | 1014.7 |
| 20260504080730 | 41 | 142 | 0.0 | 0.0 | 0.00 | 0.00 | 0.00 | 72 | 1014.6 |
| 20260504080226 | 42 | 85 | 1.7 | 1.7 | 0.00 | 0.00 | 0.00 | 69 | 1015.0 |
| 20260504070154 | 41 | 122 | 0.0 | 0.9 | 0.00 | 0.00 | 0.00 | 70 | 1014.7 |
| 20260504060114 | 43 | 283 | 0.0 | 0.9 | 0.00 | 0.00 | 0.00 | 65 | 1014.7 |
| 20260504050542 | 45 | 124 | 0.0 | 1.7 | 0.00 | 0.00 | 0.00 | 58 | 1014.8 |
| 20260504045536 | 45 | 113 | 0.0 | 0.9 | 0.00 | 0.00 | 0.00 | 57 | 1014.7 |
| 20260504045031 | 46 | 128 | 0.0 | 1.7 | 0.00 | 0.00 | 0.00 | 57 | 1014.5 |
| 20260504044529 | 46 | 99 | 0.0 | 0.9 | 0.00 | 0.00 | 0.00 | 56 | 1014.4 |
| 20260504044026 | 46 | 188 | 0.0 | 0.9 | 0.00 | 0.00 | 0.00 | 55 | 1014.5 |
| 20260504043523 | 47 | 210 | 0.0 | 0.9 | 0.00 | 0.00 | 0.00 | 55 | 1014.6 |
| 20260504043021 | 47 | 224 | 0.0 | 0.9 | 0.00 | 0.00 | 0.00 | 55 | 1014.5 |
| 20260504042517 | 47 | 117 | 0.0 | 0.0 | 0.00 | 0.00 | 0.00 | 54 | 1014.7 |
| 20260504042014 | 47 | 205 | 0.0 | 0.0 | 0.00 | 0.00 | 0.00 | 54 | 1014.7 |
| 20260504041510 | 48 | 108 | 0.0 | 0.9 | 0.00 | 0.00 | 0.00 | 53 | 1014.5 |
| 20260504041006 | 48 | 303 | 0.0 | 0.9 | 0.00 | 0.00 | 0.00 | 53 | 1014.3 |
| 20260504040504 | 48 | 211 | 0.0 | 0.0 | 0.00 | 0.00 | 0.00 | 52 | 1014.4 |
| 20260504040000 | 48 | 232 | 0.0 | 0.9 | 0.00 | 0.00 | 0.00 | 51 | 1014.2 |
| 20260504035457 | 49 | 2 | 0.0 | 0.9 | 0.00 | 0.00 | 0.00 | 51 | 1014.1 |
| 20260504034953 | 49 | 216 | 0.0 | 0.9 | 0.00 | 0.00 | 0.00 | 49 | 1014.2 |
| 20260504034451 | 49 | 215 | 0.0 | 0.9 | 0.00 | 0.00 | 0.00 | 49 | 1014.1 |
| 20260504033948 | 49 | 233 | 0.9 | 1.7 | 0.00 | 0.00 | 0.00 | 49 | 1013.9 |
| 20260504033446 | 50 | 269 | 0.0 | 1.7 | 0.00 | 0.00 | 0.00 | 48 | 1014.1 |
| 20260504032943 | 49 | 213 | 0.0 | 1.7 | 0.00 | 0.00 | 0.00 | 49 | 1014.3 |
| 20260504032440 | 49 | 218 | 0.9 | 1.7 | 0.00 | 0.00 | 0.00 | 49 | 1014.0 |
| 20260504031936 | 50 | 170 | 0.9 | 1.7 | 0.00 | 0.00 | 0.00 | 49 | 1014.1 |
| 20260504031433 | 50 | 158 | 0.0 | 1.7 | 0.00 | 0.00 | 0.00 | 48 | 1013.9 |
| 20260504030930 | 50 | 253 | 1.7 | 1.7 | 0.00 | 0.00 | 0.00 | 47 | 1014.0 |
| 20260504030427 | 50 | 210 | 0.9 | 1.7 | 0.00 | 0.00 | 0.00 | 47 | 1013.8 |
| 20260504025923 | 51 | 180 | 0.9 | 1.7 | 0.00 | 0.00 | 0.00 | 46 | 1014.0 |
| 20260504025420 | 51 | 189 | 1.7 | 2.6 | 0.00 | 0.00 | 0.00 | 46 | 1013.9 |
| 20260504024917 | 51 | 212 | 1.7 | 3.5 | 0.00 | 0.00 | 0.00 | 45 | 1013.9 |
| 20260504024414 | 51 | 185 | 0.9 | 2.6 | 0.00 | 0.00 | 0.00 | 45 | 1013.9 |
| 20260504023911 | 51 | 197 | 2.6 | 2.6 | 0.00 | 0.00 | 0.00 | 44 | 1014.1 |
| 20260504023408 | 52 | 202 | 0.9 | 3.5 | 0.00 | 0.00 | 0.00 | 44 | 1013.9 |
| 20260504022903 | 52 | 203 | 0.9 | 1.7 | 0.00 | 0.00 | 0.00 | 44 | 1014.1 |
| 20260504022400 | 52 | 224 | 0.0 | 1.7 | 0.00 | 0.00 | 0.00 | 43 | 1013.9 |
| 20260504021856 | 52 | 234 | 1.7 | 1.7 | 0.00 | 0.00 | 0.00 | 43 | 1013.9 |
| 20260504021354 | 52 | 209 | 2.6 | 4.3 | 0.00 | 0.00 | 0.00 | 42 | 1014.1 |
| 20260504020851 | 52 | 237 | 1.7 | 3.5 | 0.00 | 0.00 | 0.00 | 42 | 1013.9 |
| 20260504020347 | 53 | 216 | 0.9 | 3.5 | 0.00 | 0.00 | 0.00 | 42 | 1013.9 |
| 20260504015843 | 53 | 192 | 1.7 | 1.7 | 0.00 | 0.00 | 0.00 | 42 | 1013.9 |
| 20260504015340 | 53 | 225 | 1.7 | 2.6 | 0.00 | 0.00 | 0.00 | 42 | 1013.9 |
| 20260504014836 | 53 | 219 | 1.7 | 3.5 | 0.00 | 0.00 | 0.00 | 42 | 1013.9 |
| 20260504014332 | 53 | 220 | 1.7 | 2.6 | 0.00 | 0.00 | 0.00 | 42 | 1014.0 |
| 20260504013830 | 53 | 201 | 1.7 | 1.7 | 0.00 | 0.00 | 0.00 | 42 | 1013.9 |
| 20260504013328 | 53 | 206 | 1.7 | 4.3 | 0.00 | 0.00 | 0.00 | 41 | 1013.7 |
| 20260504012824 | 53 | 211 | 2.6 | 2.6 | 0.00 | 0.00 | 0.00 | 41 | 1013.7 |
| 20260504012322 | 53 | 182 | 0.9 | 3.5 | 0.00 | 0.00 | 0.00 | 40 | 1013.8 |
| 20260504011819 | 54 | 204 | 0.9 | 1.7 | 0.00 | 0.00 | 0.00 | 40 | 1013.7 |
| 20260504011316 | 54 | 222 | 1.7 | 1.7 | 0.00 | 0.00 | 0.00 | 40 | 1013.6 |
| 20260504010811 | 54 | 198 | 1.7 | 2.6 | 0.00 | 0.00 | 0.00 | 40 | 1013.5 |
| 20260504010307 | 55 | 194 | 1.7 | 2.6 | 0.00 | 0.00 | 0.00 | 39 | 1013.6 |
| 20260504005804 | 55 | 244 | 1.7 | 2.6 | 0.00 | 0.00 | 0.00 | 38 | 1013.6 |
| 20260504005301 | 55 | 180 | 1.7 | 4.3 | 0.00 | 0.00 | 0.00 | 38 | 1013.4 |
| 20260504004759 | 55 | 224 | 1.7 | 4.3 | 0.00 | 0.00 | 0.00 | 37 | 1013.4 |
| 20260504004256 | 56 | 231 | 1.7 | 6.1 | 0.00 | 0.00 | 0.00 | 36 | 1013.2 |
| 20260504003752 | 56 | 255 | 3.5 | 4.3 | 0.00 | 0.00 | 0.00 | 36 | 1013.3 |
| 20260504003249 | 56 | 253 | 1.7 | 4.3 | 0.00 | 0.00 | 0.00 | 36 | 1013.3 |
| 20260504002746 | 56 | 265 | 3.5 | 5.2 | 0.00 | 0.00 | 0.00 | 36 | 1013.1 |
| 20260504002242 | 57 | 236 | 1.7 | 5.2 | 0.00 | 0.00 | 0.00 | 36 | 1012.9 |
| 20260504001740 | 57 | 256 | 3.5 | 3.5 | 0.00 | 0.00 | 0.00 | 35 | 1012.9 |
| 20260504001237 | 57 | 264 | 4.3 | 4.3 | 0.00 | 0.00 | 0.00 | 34 | 1012.8 |
| 20260504000734 | 57 | 257 | 3.5 | 4.3 | 0.00 | 0.00 | 0.00 | 34 | 1013.1 |
| 20260504000231 | 58 | 243 | 1.7 | 5.2 | 0.00 | 0.00 | 0.00 | 34 | 1012.7 |
| 20260503235729 | 58 | 273 | 4.3 | 5.2 | 0.00 | 0.00 | 0.00 | 33 | 1012.7 |
| 20260503235226 | 59 | 264 | 2.6 | 8.7 | 0.00 | 0.00 | 0.00 | 32 | 1012.9 |
| 20260503234724 | 59 | 247 | 4.3 | 8.7 | 0.00 | 0.00 | 0.00 | 32 | 1012.7 |
| 20260503234222 | 59 | 279 | 2.6 | 7.0 | 0.00 | 0.00 | 0.00 | 32 | 1012.6 |
| 20260503233718 | 59 | 267 | 7.0 | 9.6 | 0.00 | 0.00 | 0.00 | 31 | 1012.6 |
| 20260503233214 | 60 | 208 | 2.6 | 6.1 | 0.00 | 0.00 | 0.00 | 32 | 1012.5 |
| 20260503232711 | 60 | 297 | 11.3 | 13.0 | 0.00 | 0.00 | 0.00 | 30 | 1012.5 |
| 20260503232208 | 60 | 284 | 12.2 | 13.9 | 0.00 | 0.00 | 0.00 | 29 | 1012.4 |
| 20260503231707 | 60 | 264 | 7.0 | 13.0 | 0.00 | 0.00 | 0.00 | 30 | 1012.5 |
| 20260503231203 | 61 | 273 | 3.5 | 8.7 | 0.00 | 0.00 | 0.00 | 30 | 1012.4 |
| 20260503230659 | 61 | 268 | 8.7 | 10.4 | 0.00 | 0.00 | 0.00 | 29 | 1012.4 |
| 20260503230156 | 61 | 271 | 11.3 | 13.9 | 0.00 | 0.00 | 0.00 | 29 | 1012.4 |
| 20260503225653 | 61 | 359 | 3.5 | 10.4 | 0.00 | 0.00 | 0.00 | 29 | 1012.2 |
| 20260503225153 | 61 | 199 | 3.5 | 8.7 | 0.00 | 0.00 | 0.00 | 30 | 1012.1 |
| 20260503224651 | 60 | 279 | 5.2 | 13.9 | 0.00 | 0.00 | 0.00 | 29 | 1012.1 |
| 20260503224149 | 60 | 289 | 6.1 | 11.3 | 0.00 | 0.00 | 0.00 | 30 | 1012.3 |
| 20260503223647 | 60 | 259 | 4.3 | 11.3 | 0.00 | 0.00 | 0.00 | 29 | 1012.3 |
| 20260503223143 | 60 | 274 | 5.2 | 13.0 | 0.00 | 0.00 | 0.00 | 28 | 1012.3 |
| 20260503222640 | 61 | 260 | 7.0 | 9.6 | 0.00 | 0.00 | 0.00 | 29 | 1012.2 |
| 20260503222137 | 61 | 352 | 8.7 | 18.2 | 0.00 | 0.00 | 0.00 | 29 | 1012.2 |
| 20260503221636 | 61 | 261 | 7.0 | 13.9 | 0.00 | 0.00 | 0.00 | 28 | 1012.3 |
| 20260503221133 | 60 | 244 | 5.2 | 9.6 | 0.00 | 0.00 | 0.00 | 28 | 1012.3 |
| 20260503220630 | 60 | 267 | 4.3 | 15.6 | 0.00 | 0.00 | 0.00 | 29 | 1012.3 |
| 20260503220126 | 61 | 304 | 7.0 | 14.8 | 0.00 | 0.00 | 0.00 | 28 | 1012.3 |
| 20260503215623 | 61 | 268 | 6.1 | 12.2 | 0.00 | 0.00 | 0.00 | 28 | 1012.1 |
| 20260503215120 | 61 | 275 | 13.0 | 18.2 | 0.00 | 0.00 | 0.00 | 27 | 1012.3 |
| 20260503214619 | 61 | 263 | 7.8 | 19.1 | 0.00 | 0.00 | 0.00 | 28 | 1012.3 |
| 20260503214115 | 62 | 263 | 12.2 | 13.9 | 0.00 | 0.00 | 0.00 | 27 | 1012.2 |
| 20260503213614 | 62 | 250 | 2.6 | 9.6 | 0.00 | 0.00 | 0.00 | 27 | 1012.2 |
| 20260503213110 | 61 | 328 | 7.0 | 13.9 | 0.00 | 0.00 | 0.00 | 27 | 1012.1 |
| 20260503212608 | 61 | 334 | 8.7 | 13.9 | 0.00 | 0.00 | 0.00 | 27 | 1012.2 |
| 20260503212105 | 61 | 275 | 5.2 | 13.0 | 0.00 | 0.00 | 0.00 | 27 | 1012.1 |
| 20260503211602 | 61 | 314 | 10.4 | 14.8 | 0.00 | 0.00 | 0.00 | 27 | 1012.0 |
| 20260503211057 | 60 | 273 | 7.8 | 13.0 | 0.00 | 0.00 | 0.00 | 27 | 1012.3 |
| 20260503210554 | 60 | 321 | 6.1 | 12.2 | 0.00 | 0.00 | 0.00 | 27 | 1012.2 |
| 20260503210050 | 60 | 284 | 2.6 | 13.0 | 0.00 | 0.00 | 0.00 | 28 | 1012.2 |
| 20260503205547 | 60 | 272 | 13.0 | 13.9 | 0.00 | 0.00 | 0.00 | 27 | 1012.1 |
| 20260503205043 | 61 | 277 | 7.0 | 20.0 | 0.00 | 0.00 | 0.00 | 26 | 1012.2 |
| 20260503204540 | 60 | 354 | 2.6 | 12.2 | 0.00 | 0.00 | 0.00 | 28 | 1012.2 |
| 20260503204037 | 60 | 257 | 11.3 | 12.2 | 0.00 | 0.00 | 0.00 | 27 | 1012.4 |
| 20260503203534 | 60 | 290 | 8.7 | 14.8 | 0.00 | 0.00 | 0.00 | 27 | 1012.3 |
| 20260503203031 | 60 | 272 | 16.5 | 18.2 | 0.00 | 0.00 | 0.00 | 27 | 1012.2 |
| 20260503202529 | 60 | 261 | 7.8 | 13.0 | 0.00 | 0.00 | 0.00 | 28 | 1012.5 |
| 20260503202027 | 59 | 274 | 7.8 | 14.8 | 0.00 | 0.00 | 0.00 | 27 | 1012.6 |
| 20260503201525 | 59 | 277 | 8.7 | 14.8 | 0.00 | 0.00 | 0.00 | 27 | 1012.5 |
| 20260503201022 | 59 | 285 | 9.6 | 16.5 | 0.00 | 0.00 | 0.00 | 27 | 1012.5 |
| 20260503200518 | 59 | 248 | 5.2 | 11.3 | 0.00 | 0.00 | 0.00 | 27 | 1012.4 |
| 20260503200015 | 59 | 276 | 10.4 | 11.3 | 0.00 | 0.00 | 0.00 | 28 | 1012.7 |
| 20260503195512 | 59 | 255 | 9.6 | 13.0 | 0.00 | 0.00 | 0.00 | 28 | 1012.6 |
| 20260503195009 | 59 | 298 | 7.8 | 16.5 | 0.00 | 0.00 | 0.00 | 27 | 1012.7 |
| 20260503194506 | 59 | 277 | 9.6 | 13.0 | 0.00 | 0.00 | 0.00 | 28 | 1012.9 |
| 20260503194000 | 58 | 278 | 9.6 | 11.3 | 0.00 | 0.00 | 0.00 | 28 | 1013.0 |
| 20260503193457 | 58 | 313 | 5.2 | 13.9 | 0.00 | 0.00 | 0.00 | 29 | 1013.1 |
| 20260503192952 | 57 | 335 | 7.8 | 11.3 | 0.00 | 0.00 | 0.00 | 30 | 1013.1 |
| 20260503192449 | 57 | 275 | 10.4 | 21.7 | 0.00 | 0.00 | 0.00 | 28 | 1013.3 |
| 20260503191944 | 58 | 298 | 3.5 | 13.9 | 0.00 | 0.00 | 0.00 | 29 | 1013.3 |
| 20260503191442 | 59 | 275 | 8.7 | 19.1 | 0.00 | 0.00 | 0.00 | 28 | 1013.3 |
| 20260503190938 | 58 | 302 | 11.3 | 17.4 | 0.00 | 0.00 | 0.00 | 29 | 1013.1 |
| 20260503190436 | 58 | 295 | 6.1 | 6.1 | 0.00 | 0.00 | 0.00 | 31 | 1013.2 |
| 20260503185933 | 58 | 311 | 7.8 | 13.0 | 0.00 | 0.00 | 0.00 | 30 | 1013.3 |
| 20260503185429 | 58 | 299 | 4.3 | 15.6 | 0.00 | 0.00 | 0.00 | 30 | 1013.4 |
| 20260503184928 | 57 | 258 | 8.7 | 20.0 | 0.00 | 0.00 | 0.00 | 30 | 1013.3 |
| 20260503184425 | 57 | 330 | 13.9 | 17.4 | 0.00 | 0.00 | 0.00 | 30 | 1013.6 |
| 20260503183922 | 57 | 328 | 12.2 | 13.9 | 0.00 | 0.00 | 0.00 | 31 | 1013.6 |
| 20260503183418 | 58 | 264 | 13.0 | 14.8 | 0.00 | 0.00 | 0.00 | 29 | 1013.4 |
| 20260503182915 | 57 | 312 | 9.6 | 15.6 | 0.00 | 0.00 | 0.00 | 31 | 1013.6 |
| 20260503182414 | 57 | 305 | 9.6 | 16.5 | 0.00 | 0.00 | 0.00 | 29 | 1013.7 |
| 20260503181911 | 56 | 271 | 10.4 | 13.0 | 0.00 | 0.00 | 0.00 | 30 | 1013.6 |
| 20260503181408 | 57 | 290 | 9.6 | 18.2 | 0.00 | 0.00 | 0.00 | 29 | 1013.5 |
| 20260503180904 | 56 | 298 | 9.6 | 16.5 | 0.00 | 0.00 | 0.00 | 31 | 1013.5 |
| 20260503180403 | 56 | 353 | 3.5 | 20.0 | 0.00 | 0.00 | 0.00 | 31 | 1013.5 |
| 20260503175858 | 56 | 290 | 10.4 | 18.2 | 0.00 | 0.00 | 0.00 | 30 | 1013.6 |
| 20260503175357 | 56 | 314 | 6.1 | 16.5 | 0.00 | 0.00 | 0.00 | 31 | 1013.8 |
| 20260503174857 | 55 | 261 | 12.2 | 20.9 | 0.00 | 0.00 | 0.00 | 31 | 1013.7 |
| 20260503174357 | 56 | 286 | 9.6 | 20.9 | 0.00 | 0.00 | 0.00 | 31 | 1013.5 |
| 20260503173856 | 55 | 324 | 11.3 | 18.2 | 0.00 | 0.00 | 0.00 | 32 | 1013.7 |
| 20260503173353 | 55 | 328 | 6.1 | 13.0 | 0.00 | 0.00 | 0.00 | 31 | 1013.7 |
| 20260503172850 | 55 | 293 | 7.0 | 9.6 | 0.00 | 0.00 | 0.00 | 31 | 1013.7 |
| 20260503172348 | 55 | 298 | 7.8 | 23.5 | 0.00 | 0.00 | 0.00 | 30 | 1013.8 |
| 20260503171843 | 55 | 323 | 7.8 | 16.5 | 0.00 | 0.00 | 0.00 | 32 | 1013.9 |
| 20260503171340 | 55 | 332 | 8.7 | 13.9 | 0.00 | 0.00 | 0.00 | 32 | 1014.0 |
| 20260503170838 | 54 | 268 | 12.2 | 20.0 | 0.00 | 0.00 | 0.00 | 33 | 1013.8 |
| 20260503170334 | 55 | 317 | 7.0 | 12.2 | 0.00 | 0.00 | 0.00 | 31 | 1014.0 |
| 20260503150726 | 49 | 257 | 7.8 | 13.9 | 0.00 | 0.00 | 0.00 | 42 | 1014.9 |
| 20260503150223 | 49 | 8 | 5.2 | 6.1 | 0.00 | 0.00 | 0.00 | 43 | 1015.0 |
| 20260503140147 | 48 | 355 | 8.7 | 12.2 | 0.00 | 0.00 | 0.00 | 48 | 1015.1 |
| 20260503131116 | 47 | 345 | 11.3 | 20.0 | 0.00 | 0.00 | 0.00 | 48 | 1015.2 |
| 20260503130614 | 47 | 345 | 4.3 | 18.2 | 0.00 | 0.00 | 0.00 | 48 | 1015.1 |
| 20260503130112 | 47 | 313 | 4.3 | 13.0 | 0.00 | 0.00 | 0.00 | 49 | 1014.9 |